PST,Max TemperatureF,Mean TemperatureF,Min TemperatureF,Max Dew PointF,MeanDew PointF,Min DewpointF,Max Humidity, Mean Humidity, Min Humidity, Max Sea Level PressureIn, Mean Sea Level PressureIn, Min Sea Level PressureIn, Max VisibilityMiles, Mean VisibilityMiles, Min VisibilityMiles, Max Wind SpeedMPH, Mean Wind SpeedMPH, Max Gust SpeedMPH,PrecipitationIn, CloudCover, Events, WindDirDegrees
2014-1-1,59,46,32,48,41,30,93,76,51,30.22,30.17,30.13,10,6,4,7,3,,0.00,2,,295
2014-1-2,62,48,35,46,41,34,93,66,45,30.18,30.11,30.05,20,12,10,7,2,,0.00,3,,358
2014-1-3,60,48,37,46,41,36,93,72,45,30.08,30.01,29.96,20,16,10,7,3,,0.00,3,,350
2014-1-4,68,52,37,34,32,30,75,60,38,30.06,30.02,29.99,20,7,0,10,3,,0.00,2,Fog,345
2014-1-5,66,50,33,43,35,25,71,52,30,30.21,30.16,30.13,10,10,10,6,4,,0.00,0,,30
2014-1-6,57,47,37,46,40,32,81,67,48,30.29,30.22,30.16,15,10,6,8,3,,0.00,7,,24
2014-1-7,62,52,41,46,43,39,93,71,48,30.21,30.17,30.13,10,7,4,7,5,,0.00,5,,3
2014-1-8,57,54,51,52,50,48,94,86,82,30.24,30.20,30.16,15,12,10,12,8,,0.00,6,,340
2014-1-9,60,48,37,50,50,50,100,100,100,30.26,30.23,30.19,20,11,2,17,9,,0.00,5,Rain,314
2014-1-10,62,50,39,50,47,37,94,81,59,30.31,30.23,30.18,20,14,4,10,4,,0.00,4,,356
2014-1-11,57,52,46,50,48,43,93,82,72,30.28,30.22,30.17,20,12,8,12,7,,0.00,6,,338
2014-1-12,59,50,41,43,38,30,76,60,47,30.39,30.34,30.31,15,14,10,15,8,,0.00,2,,321
2014-1-13,68,54,41,41,37,34,81,49,28,30.46,30.41,30.37,20,20,20,8,4,,0.00,0,,320
2014-1-14,73,56,39,39,33,27,81,40,18,30.46,30.39,30.33,20,15,10,12,5,,0.00,0,,52
2014-1-15,73,55,37,39,36,32,81,48,23,30.35,30.27,30.20,20,14,10,6,4,,0.00,0,,-1
2014-1-16,73,54,35,43,37,32,87,49,23,30.24,30.17,30.12,20,18,15,6,3,,0.00,0,,345
2014-1-17,68,52,35,46,40,32,87,60,42,30.19,30.14,30.11,20,13,7,8,6,,0.00,0,,347
2014-1-18,62,48,33,48,40,32,93,63,42,30.17,30.11,30.06,20,13,10,7,4,,0.00,0,,5
2014-1-19,64,48,33,43,38,30,87,60,39,30.14,30.09,30.06,20,10,6,8,4,,0.00,0,,353
2014-1-20,66,50,35,43,38,32,87,56,34,30.20,30.16,30.13,15,15,15,6,3,,0.00,0,,260
2014-1-21,66,50,35,48,40,32,87,63,37,30.27,30.20,30.15,20,17,10,7,3,,0.00,4,,347
2014-1-22,66,50,33,48,39,30,94,60,35,30.12,30.03,29.94,20,12,10,8,6,,0.00,0,,325
2014-1-23,69,54,39,45,36,32,93,48,25,29.98,29.91,29.87,15,9,5,7,4,,0.00,0,,180
2014-1-24,62,50,39,48,44,36,93,71,52,30.23,30.17,30.11,5,5,4,6,4,,0.00,5,,20
2014-1-25,71,56,42,52,42,37,87,60,40,30.25,30.18,30.12,20,12,7,8,2,,0.00,3,,5
2014-1-26,66,55,44,50,45,37,94,67,43,30.13,30.08,30.02,20,14,10,9,4,,0.00,3,,348
2014-1-27,59,54,48,50,47,27,94,78,43,30.21,30.16,30.12,15,9,4,9,6,,0.00,6,,18
2014-1-28,66,58,50,32,31,28,50,34,26,30.27,30.22,30.19,15,11,7,13,6,,0.00,6,,1
2014-1-29,64,60,55,,,,,,,30.20,30.11,30.01,10,7,0,12,4,,0.00,7,Fog,16
2014-1-30,62,58,53,50,47,41,88,70,45,29.93,29.89,29.87,20,13,10,16,6,,0.00,5,,309
2014-1-31,62,52,42,46,41,36,93,63,39,30.09,30.05,30.00,15,15,15,15,8,,0.00,2,,329